Regional Weather Roundup
Issued by NWS

Home | Current Version | Previous Version | Text Only | Print | Product List | Glossary Off
Versions: 1 2 3 4 5 6 7 8 9 10 11 12 13 14 15 16 17 18 19 20 21 22 23 24 25 26 27 28 29 30 31 32 33 34 35 36 37 38 39 40 41 42 43 44 45 46 47 48 49 50

000
ASUS43 KBIS 261310
RWRND
NORTH DAKOTA REGIONAL WEATHER ROUNDUP
NATIONAL WEATHER SERVICE EASTERN NORTH DAKOTA/GRAND FORKS ND
800 AM CDT MON JUN 26 2017

  NOTE: "FAIR" INDICATES FEW OR NO CLOUDS BELOW 12,000 FEET WITH NO
  SIGNIFICANT WEATHER AND/OR OBSTRUCTIONS TO VISIBILITY.

NDZ001>003-009>011-017-261400-
...NORTHWEST NORTH DAKOTA...

CITY           SKY/WX    TMP DP  RH WIND       PRES   REMARKS
WILLISTON      FAIR      56  45  66 CALM      30.23F
MINOT          FAIR      55  41  59 SW7       30.25S
MINOT AFB      NOT AVBL
$$

NDZ018>021-031>035-040>046-261400-
...SOUTHWEST NORTH DAKOTA...

CITY           SKY/WX    TMP DP  RH WIND       PRES   REMARKS
BISMARCK       FAIR      48  45  89 CALM      30.29R
DICKINSON      FAIR      52  43  71 S7        30.23F
GARRISON         N/A     51  44  77 CALM      30.26S
HETTINGER      FAIR      51  42  71 SE6       30.27S
$$

NDZ004>008-012>016-024-026-027-054-261400-
...NORTHEAST NORTH DAKOTA...

CITY           SKY/WX    TMP DP  RH WIND       PRES   REMARKS
GRAND FORKS    FAIR      56  47  71 W7        30.22R
GRAND FORKS AF FAIR      58  45  63 NW7       30.23R
DEVILS LAKE    FAIR      56  45  66 W8        30.26R
$$

NDZ022-023-025-028>030-036>039-047>053-261400-
...SOUTHEAST NORTH DAKOTA...

CITY           SKY/WX    TMP DP  RH WIND       PRES   REMARKS
JAMESTOWN      FAIR      53  46  77 NW5       30.26R
FARGO          FAIR      56  45  66 W3        30.23S
WAHPETON       FAIR      52  43  71 NW3       30.25R
$$



USA.gov is the U.S. government's official web portal to all federal, state and local government web resources and services.